Back to catalog

QIANFAN-214

AliveCommunicationsPO
NORAD 69813·PAYLOAD·🇨🇳 China

Launched Jul 4, 2026 from Taiyuan Satellite Launch Center

Loading…

Next Passes (next 24 hours)

TLE

FreshSource: Space-Track

Epoch: Sep 14, 2026, 13:53 UTC

1 69813U 26153P   26257.57913920 -.01861093  00000-0 -11923+1 0  9998
2 69813  88.9973 352.0561 0008693   1.3291 358.7913 14.07114999 10256

Track QIANFAN-214 in real time with AllMySat

Download on the App Store